sat.trackr.live / text

‹ back to catalog

2023-085AS

NORAD 57044 · 2023-085AS

PAYLOAD ACTIVE UNKNOWN

§ Identity

Operator
Country
PRC
Launch date
2023-06-15
Launch site
TAISC
Launch vehicle
Mass (kg)
RCS (m²)

External: N2YO · Heavens-Above · Gunter

§ Orbital elements

Epoch: 2026-05-25T03:59:23.294112Z

Period
93.76 min
Inclination
97.4893°
Eccentricity
0.0008045
Mean motion
15.35864391 rev/d
Perigee alt
452.9 km
Apogee alt
463.9 km
Semi-major
6,836.5 km
B*
4.6756e-4
RAAN
258.2286°
Arg perigee
155.8918°
Mean anomaly
204.2703°
Rev number
16,331

§ Raw data

2023-085AS1 57044U 23085AS  26145.16624183  .00016267  00000+0  46756-3 0  99992 57044  97.4893 258.2286 0008045 155.8918 204.2703 15.35864391163316

JSON: /api/v1/satellites/57044 · /tle

For live sub-satellite position, see the globe view (requires WebGL).

§ Visibility from observer

Set your observer location to see the next 7 days of passes ≥ 10°. The values pass through the URL so the page stays shareable.

No JS? Fill the form by hand. The geolocation button needs JavaScript.